Weather History for Barking Sands, HI

Change the Weather History Date:

Sunday, March 2, 2014

  Actual Average Record
Temperature  
Mean Temperature 72 °F -  
Max Temperature 73 °F 81 °F 90 °F (1951)
Min Temperature 70 °F 61 °F 55 °F (1970)
Cooling Degree Days 6    
Growing Degree Days 22 (Base 50)    
Moisture  
Dew Point 59 °F    
Average Humidity 65    
Maximum Humidity 73    
Minimum Humidity 61    
Precipitation  
Precipitation 0.05 in - - ()
Sea Level Pressure  
Sea Level Pressure 29.92 in    
Wind  
Wind Speed 12 mph (NNW)    
Max Wind Speed 18 mph    
Max Gust Speed 24 mph    
Visibility 6 miles    
Events Rain    
Averages and records for this station are not official NWS values.
T = Trace of Precipitation, MM = Missing Value Source: NWS Daily Summary

Daily Weather History Graph

Daily Weather History Graph

Search for Another Location

Airport:

Trip Planner

Search our weather history database for the weather conditions in past years. The results will help you decide how hot, cold, wet, or windy it might be!

Date:

Astronomy

Mar. 02, 2014 Rise Set
Actual Time 6:59 AM HST 6:43 PM HST
Civil Twilight 6:36 AM HST 7:06 PM HST
Nautical Twilight 6:10 AM HST 7:31 PM HST
Astronomical Twilight 5:44 AM HST 7:57 PM HST
Moon 7:54 AM HST (3/2) 8:32 PM HST (3/2)
Length of Visible Light 12h 29m
Length of Day
11h 44m
Waxing Crescent, 3% of the Moon is Illuminated
Mar 2
Waxing Crescent
Mar 8
First Quarter
Mar 16
Full
Mar 23
Last Quarter
Mar 30
New

Hourly Weather History & Observations

Time (HST) Temp. Dew Point Humidity Pressure Visibility Wind Dir Wind Speed Gust Speed Precip Events Conditions
12:56 AM - - N/A% 29.94 in 5.0 mi NNW 11.5 mph - N/A   Haze
1:31 AM - - N/A% 29.92 in - NNW 12.7 mph - 0.01 in Rain Light Rain
1:37 AM - - N/A% 29.92 in - North 13.8 mph - 0.03 in Rain Heavy Rain
1:46 AM - - N/A% 29.91 in - North 12.7 mph - 0.03 in Rain Light Rain
1:53 AM - - N/A% 29.91 in 6.0 mi North 11.5 mph - 0.03 in   Overcast
1:56 AM - - N/A% 29.92 in 7.0 mi North 17.3 mph - 0.04 in   Overcast
2:56 AM - - N/A% 29.90 in 4.0 mi North 15.0 mph - 0.00 in   Unknown
3:03 AM - - N/A% 29.89 in 4.0 mi North 17.3 mph 24.2 mph 0.00 in   Overcast
3:21 AM - - N/A% 29.89 in 5.0 mi North 18.4 mph - 0.00 in   Haze
3:49 AM - - N/A% 29.90 in 6.0 mi North 12.7 mph - 0.00 in   Haze
3:56 AM - - N/A% 29.91 in 8.0 mi North 11.5 mph - 0.00 in   Overcast
4:32 AM - - N/A% 29.90 in 2.5 mi NNW 18.4 mph - 0.00 in   Unknown
4:38 AM - - N/A% 29.90 in - NNW 18.4 mph - 0.00 in   Unknown
4:56 AM - - N/A% 29.91 in 8.0 mi North 10.4 mph - 0.00 in   Overcast
5:35 AM - - N/A% 29.89 in 10.0 mi North 6.9 mph - 0.00 in Rain Light Rain
5:56 AM - - N/A% 29.92 in 10.0 mi North 5.8 mph - 0.00 in   Overcast
6:56 AM - - N/A% 29.92 in 7.0 mi North 9.2 mph - 0.00 in Rain Light Rain
7:20 AM - - N/A% 29.91 in - North 13.8 mph - 0.01 in   Unknown
7:41 AM - - N/A% 29.93 in 6.0 mi NNE 9.2 mph - 0.01 in   Haze
7:56 AM - - N/A% 29.96 in 7.0 mi NNW 6.9 mph - 0.01 in Rain Light Rain
8:46 AM - - N/A% 29.96 in 6.2 mi North 12.7 mph - 0.00 in Rain Light Rain
8:53 AM - - N/A% 29.96 in 5.0 mi North 12.7 mph - 0.00 in   Haze
8:56 AM - - N/A% 29.97 in 4.0 mi North 12.7 mph - 0.00 in   Haze
9:56 AM - - N/A% 29.97 in 10.0 mi NNE 4.6 mph - N/A   Overcast
10:56 AM 73.0 °F 59.0 °F 61% 29.98 in 5.0 mi NNW 9.2 mph - N/A   Haze
11:56 AM 73.0 °F 59.0 °F 61% 29.96 in 6.0 mi NNW 6.9 mph - N/A   Haze
12:56 PM 73.0 °F 60.1 °F 64% 29.93 in 8.0 mi NNW 10.4 mph - N/A   Mostly Cloudy
1:56 PM 73.9 °F 61.0 °F 64% 29.92 in 4.0 mi NNW 15.0 mph - N/A   Haze
2:56 PM 72.0 °F 61.0 °F 68% 29.90 in 4.0 mi NNW 13.8 mph - N/A   Haze
3:56 PM 71.1 °F 61.0 °F 70% 29.89 in 7.0 mi North 9.2 mph - N/A   Overcast
4:40 PM 71.6 °F 59.0 °F 64% 29.86 in 6.0 mi North 9.2 mph - N/A   Haze
4:56 PM 72.0 °F 60.1 °F 66% 29.89 in 4.0 mi NNW 13.8 mph - N/A   Haze
5:10 PM 71.6 °F 59.0 °F 64% 29.87 in 5.0 mi NNW 12.7 mph - N/A   Haze
5:39 PM 71.6 °F 59.0 °F 64% 29.87 in 5.0 mi North 12.7 mph - N/A   Haze
5:51 PM 71.6 °F 59.0 °F 64% 29.88 in 6.0 mi NNW 13.8 mph - N/A   Haze
5:56 PM 71.1 °F 59.0 °F 66% 29.89 in 5.0 mi NNW 11.5 mph - N/A   Haze
6:04 PM 71.6 °F 59.0 °F 64% 29.89 in 4.0 mi NNW 13.8 mph - N/A   Haze
6:56 PM 71.1 °F 57.9 °F 63% 29.90 in 6.0 mi NNW 9.2 mph - N/A   Haze
7:56 PM 71.1 °F 57.9 °F 63% 29.92 in 6.0 mi NNW 9.2 mph - N/A   Haze
8:56 PM 71.1 °F 57.9 °F 63% 29.93 in 6.0 mi NNW 10.4 mph - N/A   Haze
9:56 PM 70.0 °F 57.9 °F 65% 29.92 in 6.0 mi NNW 10.4 mph - N/A   Haze
10:56 PM 70.0 °F 61.0 °F 73% 29.92 in 6.0 mi NW 11.5 mph - 0.00 in Rain Light Rain
11:56 PM 70.0 °F 57.9 °F 65% 29.93 in 7.0 mi NW 16.1 mph - 0.00 in   Overcast